Showing default

SPAWAR-CAL-R, 43776

Orbit data source: Space-Track

SPAWAR-CAL-R, 43776 is a payload satellite owned by SPAWAR (US) in SSO that was launched on Mon, 03 Dec 2018 UTC via an FALCON 9 launch vehicle from the Air Force Western Test Range (AFWTR). Payload-class satellites include a variety of spacecraft equipped with specific instruments for various scientific and technological missions. These include communications satellites like Starlink; space stations such as the ISS; scientific satellites like the Hubble; Earth observation satellites from companies like Planet Labs, Umbra, and HawkEye 360; GPS; miniature CubeSats for education and research; and military/defense satellites.

Loading next visibility...
Identifier
43776, 2018-099U
Orbit
SSO
Country
Flag of USUS
Related business
Manufacturer
SPAWAR?
Mission
Operational Defense Calibration
Bus & Motor
CUBESAT 1U, Unknown motor
Mass
1 kg wet, 1 kg dry
Launch date (UTC)
2018-12-03 (8 years ago)
Launch vehicle
FALCON 9
Launch site
Air Force Western Test Range (AFWTR)
Object type
Payload
Rocket body
Debris
Shape & HBR
Box, 0.1 m
Radar Cross Section
0.015 m², Medium (>0.1 m² and < 1m²)

Expand to show TLE details & history
Last TLE update: 20 hours ago

TLE from 20 hours ago
0 SPAWAR-CAL-R
1 43776U 18099U   26219.58582854  .00001652  00000-0  11756-3 0  9996
2 43776  97.4354 258.1659 0019942 180.4058 179.7157 15.05832366419738
Epoch: 2026-08-07T14:03Z
TLE epoch observation values (Epoch: 2026-08-07T14:03:35.585Z)
Latitude
-0.00001°
Longitude
91.15822°
Altitude
565.839 km
Speed
7.571 km/s
True Right ascension
17h 12m 39s
True Declination
0° 00' 00"
Sunlit
Object was in full shadow at epoch
Visualization orbit readout
Latitude
Unknown
Longitude
Unknown
Altitude
Unknown
Speed
Unknown
Apparent Right ascension
Unknown
Apparent Declination
Unknown
Sunlit
N/A
Visualization observer readout
Local Sidereal Time
23:47:40
Azimuth
Unknown
Elevation
Unknown
Doppler factor
Unknown
Orbital elements
Apogee altitude
559.746 km
Perigee altitude
532.13 km
Semi-major axis
6,924.075 km
Eccentricity
0.00199
Inclination
97.4354°
RAAN
258.1659°
Arg. of periapsis
180.4058°
True anomaly
179.71683°
Mean anomaly
179.7157°
Eccentric anomaly
179.71627°
Mean motion
3.76704 °/min
Orbital period
95.57 mins
BSTAR
0.00011756
Loading maneuver chart data...
Computing Atmospheric mass density...
Loading historical data...
Loading historical data...
Loading historical data...
Loading historical data...
Loading historical data...
Loading historical data...
Loading historical data...

Documentation

Showing up to 5 results
|